This is the latest recevied weather packets stored in our database for station/object DD5ZT-13. If no packets are shown the sender has not sent any weather packets the latest 1 day(s).
| Time | Temp. | Humidity | Pressure | Rain* | Wind** | Luminosity | Snow |
|---|---|---|---|---|---|---|---|
| 1778027672 | 11.67° C | 65% | 1011.2 hPa | 0 mm | - | - | - |
| 1778027047 | 11.67° C | 63% | 1011.4 hPa | 0 mm | - | - | - |
| 1778026585 | 11.67° C | 62% | 1011.4 hPa | 0 mm | - | - | - |
| 1778026422 | 11.67° C | 62% | 1011.4 hPa | 0 mm | - | - | - |
| 1778025172 | 12.22° C | 62% | 1011.5 hPa | 0 mm | - | - | - |
| 1778024547 | 11.67° C | 59% | 1011.7 hPa | 0 mm | - | - | - |
| 1778020960 | 13.89° C | 56% | 1011.9 hPa | 0 mm | - | - | - |
| 1778020796 | 13.89° C | 56% | 1011.9 hPa | 0 mm | - | - | - |
| 1778020171 | 13.89° C | 51% | 1012 hPa | 0 mm | - | - | - |
| 1778019759 | 14.44° C | 60% | 1012 hPa | 0 mm | - | - | - |
| 1778016460 | 15.56° C | 54% | 1012.2 hPa | 0 mm | - | - | - |
| 1778016420 | 15.56° C | 54% | 1012.2 hPa | 0 mm | - | - | - |
| 1778015795 | 17.22° C | 58% | 1012.2 hPa | 0 mm | - | - | - |
| 1778013985 | 17.22° C | 53% | 1012.1 hPa | 0 mm | - | - | - |
| 1778013459 | 16.67° C | 49% | 1012.2 hPa | 0 mm | - | - | - |
| 1778012185 | 17.78° C | 50% | 1011.9 hPa | 0 mm | - | - | - |
| 1778011659 | 17.78° C | 49% | 1011.9 hPa | 0 mm | - | - | - |
| 1778011419 | 17.78° C | 49% | 1011.9 hPa | 0 mm | - | - | - |
| 1778010794 | 17.78° C | 51% | 1011.9 hPa | 0 mm | - | - | - |
| 1778010385 | 17.78° C | 51% | 1011.9 hPa | 0 mm | - | - | - |
| 1778008959 | 17.78° C | 53% | 1012 hPa | 0 mm | - | - | - |
| 1778008294 | 17.78° C | 52% | 1011.9 hPa | 0 mm | - | - | - |
| 1778007043 | 18.33° C | 52% | 1011.9 hPa | 0 mm | - | - | - |
| 1778006418 | 18.33° C | 52% | 1011.9 hPa | 0 mm | - | - | - |
| 1778005885 | 17.78° C | 47% | 1011.8 hPa | 0 mm | - | - | - |
* Rain latest hour (hover to see other rain measurements)
** Current wind speed in m/s (hover to see current wind gust speed)